HZA2 OEJN-HAAB

Flight info

Callsign HZA2
Flight time 1h 53m
Altitude 39000
Route RIBAM G650 RASKA/N0450F380 UG650 KONET/N0447F390 DCT EKBOB/N0446F380 UT114 MEKEL MEKEL2A
Aircraft A320/M-SDE3FGHIRWY/LB1

Departure

Time 2026-04-27 17:52
Airport King Abdulaziz International Airport (OEJN)

Arrival

Time 2026-04-27 19:45
Airport Addis Ababa Bole International Airport (HAAB)
Time Latitude Longitude Altitude Speed Heading
2026-04-27 17:18 21.69059 39.13672 27 ft 0 kts 71°
2026-04-27 17:41 21.69058 39.13668 27 ft 2 kts 71°
2026-04-27 17:41 21.69054 39.13654 28 ft 2 kts 71°
2026-04-27 17:41 21.69050 39.13641 29 ft 2 kts 71°
2026-04-27 17:41 21.69041 39.13634 30 ft 4 kts 136°
2026-04-27 17:42 21.69033 39.13638 27 ft 0 kts 153°
2026-04-27 17:44 21.69032 39.13639 27 ft 1 kts 153°
2026-04-27 17:44 21.68991 39.13619 27 ft 10 kts 249°
2026-04-27 17:44 21.68969 39.13553 27 ft 9 kts 250°
2026-04-27 17:45 21.68917 39.13530 28 ft 12 kts 160°
2026-04-27 17:45 21.68844 39.13559 28 ft 11 kts 159°
2026-04-27 17:45 21.68776 39.13587 28 ft 10 kts 159°
2026-04-27 17:45 21.68713 39.13613 28 ft 9 kts 159°
2026-04-27 17:46 21.68630 39.13646 29 ft 21 kts 160°
2026-04-27 17:46 21.68494 39.13700 29 ft 20 kts 160°
2026-04-27 17:46 21.68367 39.13742 30 ft 16 kts 188°
2026-04-27 17:46 21.68270 39.13693 30 ft 17 kts 173°
2026-04-27 17:47 21.68156 39.13738 31 ft 17 kts 161°
2026-04-27 17:47 21.68057 39.13779 32 ft 31 kts 159°
2026-04-27 17:47 21.67751 39.13900 34 ft 36 kts 160°
2026-04-27 17:47 21.67507 39.13996 35 ft 34 kts 160°
2026-04-27 17:48 21.67283 39.14085 35 ft 33 kts 159°
2026-04-27 17:48 21.67133 39.14110 34 ft 17 kts 218°
2026-04-27 17:48 21.67119 39.14081 36 ft 0 kts 254°
2026-04-27 17:48 21.67117 39.14073 35 ft 0 kts 254°
2026-04-27 17:51 21.67110 39.14050 35 ft 7 kts 251°
2026-04-27 17:51 21.67092 39.13960 35 ft 15 kts 278°
2026-04-27 17:51 21.67196 39.13897 35 ft 33 kts 340°
2026-04-27 17:51 21.67670 39.13711 37 ft 109 kts 340°
2026-04-27 17:52 21.68577 39.13359 110 ft 159 kts 340°
2026-04-27 17:52 21.69591 39.12956 918 ft 155 kts 341°
2026-04-27 17:52 21.70585 39.12525 1756 ft 155 kts 336°
2026-04-27 17:52 21.71238 39.12130 2049 ft 170 kts 332°
2026-04-27 17:53 21.72733 39.11203 2579 ft 200 kts 331°
2026-04-27 17:53 21.73964 39.10423 3246 ft 210 kts 330°
2026-04-27 17:53 21.75249 39.09608 3995 ft 218 kts 330°
2026-04-27 17:53 21.76580 39.08765 4727 ft 226 kts 329°
2026-04-27 17:54 21.77896 39.07754 5279 ft 244 kts 313°
2026-04-27 17:54 21.78884 39.06177 5718 ft 266 kts 290°
2026-04-27 17:54 21.79239 39.04204 6471 ft 272 kts 268°
2026-04-27 17:54 21.78867 39.02204 7347 ft 275 kts 246°
2026-04-27 17:55 21.77794 39.00512 8287 ft 278 kts 224°
2026-04-27 17:55 21.76172 38.99385 9278 ft 281 kts 207°
2026-04-27 17:55 21.74336 38.98647 10170 ft 287 kts 192°
2026-04-27 17:55 21.72253 38.98621 10560 ft 314 kts 177°
2026-04-27 17:56 21.70012 38.98865 11034 ft 330 kts 176°
2026-04-27 17:56 21.67704 38.99148 11805 ft 336 kts 176°
2026-04-27 17:56 21.65400 38.99432 12649 ft 338 kts 176°
2026-04-27 17:56 21.63031 38.99713 13501 ft 341 kts 177°
2026-04-27 17:57 21.60660 38.99983 14243 ft 344 kts 178°
2026-04-27 17:57 21.58267 39.00247 14957 ft 348 kts 178°
2026-04-27 17:57 21.55848 39.00508 15670 ft 351 kts 179°
2026-04-27 17:57 21.53406 39.00770 16376 ft 355 kts 179°
2026-04-27 17:58 21.50933 39.01037 17063 ft 359 kts 180°
2026-04-27 17:58 21.48442 39.01306 17738 ft 362 kts 180°
2026-04-27 17:58 21.45917 39.01581 18374 ft 366 kts 180°
2026-04-27 17:58 21.43371 39.01862 18981 ft 369 kts 180°
2026-04-27 17:59 21.40806 39.02144 19598 ft 372 kts 180°
2026-04-27 17:59 21.38224 39.02431 20213 ft 375 kts 180°
2026-04-27 17:59 21.35623 39.02716 20851 ft 377 kts 180°
2026-04-27 17:59 21.33003 39.03001 21465 ft 380 kts 181°
2026-04-27 18:00 21.30369 39.03286 22083 ft 382 kts 181°
2026-04-27 18:00 21.27713 39.03572 22699 ft 384 kts 181°
2026-04-27 18:00 21.25044 39.03860 23300 ft 387 kts 181°
2026-04-27 18:00 21.22356 39.04151 23792 ft 390 kts 181°
2026-04-27 18:01 21.19644 39.04447 24211 ft 394 kts 181°
2026-04-27 18:01 21.16902 39.04745 24618 ft 398 kts 181°
2026-04-27 18:01 21.14134 39.05048 25015 ft 402 kts 181°
2026-04-27 18:01 21.11338 39.05355 25405 ft 406 kts 181°
2026-04-27 18:02 21.08510 39.05664 25782 ft 410 kts 181°
2026-04-27 18:02 21.05657 39.05975 26154 ft 414 kts 181°
2026-04-27 18:02 21.02777 39.06289 26518 ft 418 kts 181°
2026-04-27 18:02 20.99870 39.06605 26871 ft 422 kts 181°
2026-04-27 18:03 20.97929 39.06815 27105 ft 424 kts 181°
2026-04-27 18:03 20.94975 39.07132 27426 ft 428 kts 181°
2026-04-27 18:03 20.91996 39.07452 27763 ft 432 kts 181°
2026-04-27 18:03 20.88989 39.07779 28087 ft 436 kts 181°
2026-04-27 18:04 20.84966 39.08218 28521 ft 441 kts 181°
2026-04-27 18:04 20.81906 39.08552 28851 ft 444 kts 181°
2026-04-27 18:04 20.79821 39.08778 29045 ft 447 kts 181°
2026-04-27 18:04 20.76717 39.09115 29349 ft 450 kts 181°
2026-04-27 18:05 20.73591 39.09456 29659 ft 453 kts 181°
2026-04-27 18:05 20.70446 39.09731 29935 ft 452 kts 186°
2026-04-27 18:05 20.67307 39.09678 30154 ft 452 kts 188°
2026-04-27 18:05 20.64193 39.09596 30388 ft 455 kts 188°
2026-04-27 18:06 20.60978 39.09512 30635 ft 458 kts 188°
2026-04-27 18:06 20.57817 39.09431 30868 ft 460 kts 188°
2026-04-27 18:06 20.54606 39.09350 31106 ft 462 kts 188°
2026-04-27 18:06 20.51380 39.09268 31329 ft 465 kts 188°
2026-04-27 18:07 20.48144 39.09186 31557 ft 467 kts 188°
2026-04-27 18:07 20.44893 39.09102 31836 ft 467 kts 188°
2026-04-27 18:07 20.41645 39.09019 32139 ft 467 kts 187°
2026-04-27 18:07 20.38399 39.08938 32448 ft 467 kts 187°
2026-04-27 18:08 20.35150 39.08860 32761 ft 467 kts 187°
2026-04-27 18:08 20.31906 39.08783 33075 ft 466 kts 187°
2026-04-27 18:08 20.28663 39.08705 33408 ft 466 kts 187°
2026-04-27 18:08 20.25427 39.08622 33745 ft 466 kts 187°
2026-04-27 18:09 20.22183 39.08536 34046 ft 465 kts 187°
2026-04-27 18:09 20.18946 39.08449 34336 ft 465 kts 187°
2026-04-27 18:09 20.15718 39.08367 34619 ft 464 kts 187°
2026-04-27 18:09 20.12493 39.08290 34934 ft 463 kts 187°
2026-04-27 18:10 20.09279 39.08214 35230 ft 462 kts 187°
2026-04-27 18:10 20.06065 39.08136 35520 ft 461 kts 187°
2026-04-27 18:10 20.02859 39.08056 35802 ft 460 kts 187°
2026-04-27 18:10 19.99661 39.07976 36078 ft 459 kts 186°
2026-04-27 18:11 19.96471 39.07896 36360 ft 458 kts 186°
2026-04-27 18:11 19.93287 39.07814 36631 ft 458 kts 186°
2026-04-27 18:11 19.90107 39.07732 36887 ft 457 kts 186°
2026-04-27 18:11 19.86928 39.07655 37121 ft 457 kts 186°
2026-04-27 18:12 19.83789 39.07575 37364 ft 457 kts 186°
2026-04-27 18:12 19.80612 39.07496 37604 ft 457 kts 186°
2026-04-27 18:12 19.77398 39.07416 37859 ft 456 kts 186°
2026-04-27 18:12 19.74227 39.07337 38104 ft 456 kts 186°
2026-04-27 18:13 19.71096 39.07261 38342 ft 455 kts 186°
2026-04-27 18:13 19.67928 39.07183 38566 ft 455 kts 186°
2026-04-27 18:13 19.64772 39.07105 38754 ft 454 kts 186°
2026-04-27 18:13 19.61608 39.07026 38843 ft 454 kts 186°
2026-04-27 18:14 19.55294 39.06869 38863 ft 454 kts 186°
2026-04-27 18:14 19.48982 39.06710 38862 ft 453 kts 186°
2026-04-27 18:15 19.42673 39.06548 38863 ft 454 kts 186°
2026-04-27 18:15 19.36357 39.06397 38864 ft 455 kts 186°
2026-04-27 18:16 19.30020 39.06245 38870 ft 456 kts 186°
2026-04-27 18:16 19.23675 39.06088 38877 ft 456 kts 186°
2026-04-27 18:17 19.17322 39.05918 38879 ft 457 kts 186°
2026-04-27 18:17 19.10969 39.05747 38878 ft 457 kts 186°
2026-04-27 18:18 19.04626 39.05430 38885 ft 456 kts 187°
2026-04-27 18:18 18.98289 39.05031 38888 ft 456 kts 187°
2026-04-27 18:19 18.91950 39.04645 38887 ft 456 kts 187°
2026-04-27 18:19 18.85608 39.04289 38879 ft 456 kts 186°
2026-04-27 18:20 18.79262 39.03953 38882 ft 456 kts 187°
2026-04-27 18:20 18.72921 39.03595 38884 ft 456 kts 187°
2026-04-27 18:21 18.66621 39.03236 38889 ft 456 kts 187°
2026-04-27 18:21 18.60279 39.02893 38883 ft 456 kts 187°
2026-04-27 18:22 18.53933 39.02547 38880 ft 457 kts 187°
2026-04-27 18:22 18.47591 39.02198 38881 ft 457 kts 187°
2026-04-27 18:23 18.41240 39.01848 38888 ft 457 kts 187°
2026-04-27 18:23 18.34892 39.01494 38887 ft 457 kts 187°
2026-04-27 18:24 18.28546 39.01143 38873 ft 457 kts 186°
2026-04-27 18:24 18.22199 39.00793 38873 ft 457 kts 186°
2026-04-27 18:25 18.15838 39.00441 38881 ft 458 kts 186°
2026-04-27 18:25 18.09471 39.00178 38884 ft 459 kts 185°
2026-04-27 18:26 18.03081 38.99989 38876 ft 459 kts 185°
2026-04-27 18:26 17.96695 38.99785 38879 ft 459 kts 185°
2026-04-27 18:27 17.90302 38.99551 38884 ft 459 kts 185°
2026-04-27 18:27 17.83915 38.99305 38884 ft 460 kts 185°
2026-04-27 18:28 17.77521 38.99067 38883 ft 460 kts 185°
2026-04-27 18:28 17.71127 38.98839 38883 ft 460 kts 185°
2026-04-27 18:29 17.64735 38.98620 38886 ft 460 kts 185°
2026-04-27 18:29 17.58336 38.98397 38886 ft 460 kts 185°
2026-04-27 18:30 17.51945 38.98163 38883 ft 460 kts 185°
2026-04-27 18:30 17.45551 38.97930 38886 ft 460 kts 185°
2026-04-27 18:31 17.39149 38.97704 38884 ft 460 kts 185°
2026-04-27 18:31 17.32754 38.97471 38885 ft 460 kts 185°
2026-04-27 18:32 17.26405 38.97236 38879 ft 460 kts 185°
2026-04-27 18:32 17.20011 38.97000 38882 ft 460 kts 185°
2026-04-27 18:33 17.13620 38.96774 38879 ft 459 kts 185°
2026-04-27 18:33 17.07228 38.96547 38880 ft 459 kts 185°
2026-04-27 18:34 17.00837 38.96310 38886 ft 459 kts 185°
2026-04-27 18:34 16.94445 38.96067 38891 ft 460 kts 185°
2026-04-27 18:35 16.88054 38.95835 38893 ft 460 kts 185°
2026-04-27 18:35 16.81662 38.95602 38891 ft 460 kts 185°
2026-04-27 18:36 16.75259 38.95372 38900 ft 460 kts 185°
2026-04-27 18:36 16.68866 38.95145 38899 ft 460 kts 185°
2026-04-27 18:37 16.62470 38.94912 38901 ft 460 kts 185°
2026-04-27 18:37 16.56080 38.94684 38906 ft 459 kts 185°
2026-04-27 18:38 16.49693 38.94452 38903 ft 459 kts 185°
2026-04-27 18:38 16.43308 38.94219 38898 ft 459 kts 184°
2026-04-27 18:39 16.36918 38.93992 38901 ft 459 kts 184°
2026-04-27 18:39 16.30540 38.93759 38928 ft 459 kts 185°
2026-04-27 18:40 16.24158 38.93523 38927 ft 459 kts 184°
2026-04-27 18:40 16.17776 38.93295 38932 ft 459 kts 184°
2026-04-27 18:41 16.11447 38.93068 38936 ft 458 kts 184°
2026-04-27 18:41 16.05039 38.92837 38939 ft 458 kts 184°
2026-04-27 18:42 15.99744 38.92650 38946 ft 458 kts 184°
2026-04-27 18:42 15.92338 38.92388 38946 ft 458 kts 184°
2026-04-27 18:43 15.85963 38.92149 38961 ft 458 kts 184°
2026-04-27 18:43 15.79596 38.91912 38954 ft 458 kts 184°
2026-04-27 18:44 15.73217 38.91680 38972 ft 458 kts 184°
2026-04-27 18:44 15.66839 38.91458 38972 ft 458 kts 184°
2026-04-27 18:45 15.60466 38.91235 38993 ft 458 kts 184°
2026-04-27 18:45 15.54092 38.91006 39000 ft 458 kts 184°
2026-04-27 18:46 15.47720 38.90773 39017 ft 458 kts 184°
2026-04-27 18:46 15.41344 38.90543 39032 ft 458 kts 184°
2026-04-27 18:47 15.34972 38.90316 39033 ft 458 kts 184°
2026-04-27 18:47 15.28616 38.90089 39054 ft 456 kts 184°
2026-04-27 18:48 15.22309 38.89988 39055 ft 456 kts 181°
2026-04-27 18:48 15.15969 38.90033 39065 ft 455 kts 181°
2026-04-27 18:49 15.09640 38.90074 39066 ft 455 kts 181°
2026-04-27 18:49 15.03322 38.90070 39070 ft 453 kts 181°
2026-04-27 18:50 14.98048 38.90052 39071 ft 452 kts 181°
2026-04-27 18:50 14.91760 38.90039 39067 ft 451 kts 181°
2026-04-27 18:51 14.85485 38.90033 39065 ft 451 kts 181°
2026-04-27 18:51 14.79260 38.90030 39064 ft 450 kts 181°
2026-04-27 18:52 14.72995 38.90028 39062 ft 450 kts 181°
2026-04-27 18:53 14.63620 38.90016 39065 ft 449 kts 181°
2026-04-27 18:53 14.57373 38.90009 39066 ft 449 kts 181°
2026-04-27 18:54 14.51123 38.90000 39077 ft 449 kts 181°
2026-04-27 18:54 14.44886 38.90572 39076 ft 450 kts 175°
2026-04-27 18:55 14.38653 38.91271 39075 ft 450 kts 174°
2026-04-27 18:55 14.32412 38.91951 39068 ft 451 kts 175°
2026-04-27 18:56 14.26166 38.92632 39084 ft 451 kts 174°
2026-04-27 18:56 14.19969 38.93323 39095 ft 451 kts 174°
2026-04-27 18:57 14.13728 38.94013 39100 ft 451 kts 174°
2026-04-27 18:57 14.07472 38.94705 39113 ft 452 kts 175°
2026-04-27 18:58 14.01224 38.95396 39119 ft 452 kts 175°
2026-04-27 18:58 13.94971 38.96082 39115 ft 452 kts 174°
2026-04-27 18:59 13.88700 38.96780 39110 ft 454 kts 174°
2026-04-27 18:59 13.82418 38.97470 39089 ft 455 kts 174°
2026-04-27 19:00 13.76116 38.98162 39097 ft 456 kts 174°
2026-04-27 19:00 13.69806 38.98856 39084 ft 456 kts 174°
2026-04-27 19:01 13.63471 38.99551 39060 ft 460 kts 173°
2026-04-27 19:01 13.57092 39.00254 39034 ft 462 kts 173°
2026-04-27 19:02 13.50681 39.00965 39021 ft 464 kts 173°
2026-04-27 19:02 13.44248 39.01675 39027 ft 466 kts 173°
2026-04-27 19:03 13.37789 39.02376 39007 ft 467 kts 173°
2026-04-27 19:03 13.31330 39.03078 39019 ft 467 kts 173°
2026-04-27 19:04 13.24863 39.03789 39003 ft 467 kts 173°
2026-04-27 19:04 13.18396 39.04507 39012 ft 468 kts 173°
2026-04-27 19:05 13.11925 39.05220 39007 ft 468 kts 173°
2026-04-27 19:05 13.05459 39.05930 38998 ft 467 kts 173°
2026-04-27 19:06 12.98986 39.06632 39008 ft 467 kts 173°
2026-04-27 19:06 12.92525 39.07334 39015 ft 467 kts 173°
2026-04-27 19:07 12.86069 39.08035 39014 ft 466 kts 174°
2026-04-27 19:07 12.79657 39.08733 39027 ft 466 kts 173°
2026-04-27 19:08 12.73185 39.09446 39038 ft 464 kts 173°
2026-04-27 19:08 12.66775 39.10149 39049 ft 463 kts 173°
2026-04-27 19:09 12.60416 39.10843 39046 ft 462 kts 173°
2026-04-27 19:09 12.54034 39.11535 39057 ft 461 kts 173°
2026-04-27 19:10 12.47668 39.12228 39075 ft 460 kts 173°
2026-04-27 19:10 12.41316 39.12922 39089 ft 459 kts 173°
2026-04-27 19:11 12.34975 39.13607 39104 ft 458 kts 173°
2026-04-27 19:11 12.28644 39.14297 39101 ft 457 kts 173°
2026-04-27 19:12 12.22322 39.14991 39119 ft 457 kts 173°
2026-04-27 19:12 12.16005 39.15677 39118 ft 456 kts 173°
2026-04-27 19:13 12.09715 39.16351 39115 ft 454 kts 173°
2026-04-27 19:13 12.03432 39.17029 39119 ft 453 kts 173°
2026-04-27 19:14 11.97166 39.17716 39122 ft 453 kts 173°
2026-04-27 19:14 11.90897 39.18402 39126 ft 453 kts 173°
2026-04-27 19:15 11.84625 39.19084 39129 ft 454 kts 173°
2026-04-27 19:15 11.78379 39.19756 39117 ft 454 kts 173°
2026-04-27 19:16 11.72100 39.20432 39118 ft 454 kts 173°
2026-04-27 19:16 11.65820 39.21112 39108 ft 454 kts 172°
2026-04-27 19:17 11.59543 39.21789 39113 ft 453 kts 173°
2026-04-27 19:17 11.53282 39.22465 39112 ft 453 kts 173°
2026-04-27 19:18 11.47016 39.23149 39116 ft 452 kts 173°
2026-04-27 19:18 11.40753 39.23775 39104 ft 453 kts 177°
2026-04-27 19:19 11.34505 39.23033 39110 ft 454 kts 191°
2026-04-27 19:19 11.28325 39.21736 39107 ft 454 kts 190°
2026-04-27 19:20 11.22137 39.20460 39096 ft 454 kts 191°
2026-04-27 19:20 11.15948 39.19180 39104 ft 454 kts 190°
2026-04-27 19:21 11.09755 39.17902 39125 ft 454 kts 191°
2026-04-27 19:21 11.03569 39.16627 39127 ft 454 kts 191°
2026-04-27 19:22 10.97381 39.15345 39136 ft 454 kts 191°
2026-04-27 19:22 10.91192 39.14065 39137 ft 454 kts 191°
2026-04-27 19:23 10.85005 39.12788 39133 ft 454 kts 191°
2026-04-27 19:23 10.78816 39.11513 39118 ft 454 kts 190°
2026-04-27 19:24 10.72617 39.10265 39105 ft 454 kts 188°
2026-04-27 19:24 10.66369 39.09351 39080 ft 454 kts 186°
2026-04-27 19:24 10.63235 39.08973 38886 ft 454 kts 185°
2026-04-27 19:25 10.60137 39.08604 38659 ft 453 kts 186°
2026-04-27 19:25 10.56965 39.08210 38387 ft 454 kts 186°
2026-04-27 19:25 10.53870 39.07809 38093 ft 455 kts 186°
2026-04-27 19:25 10.50828 39.07397 37839 ft 456 kts 186°
2026-04-27 19:26 10.47673 39.06958 37579 ft 457 kts 187°
2026-04-27 19:26 10.44519 39.06513 37323 ft 458 kts 187°
2026-04-27 19:26 10.41356 39.06069 37053 ft 459 kts 187°
2026-04-27 19:26 10.38193 39.05628 36803 ft 460 kts 187°
2026-04-27 19:27 10.35018 39.05190 36560 ft 461 kts 187°
2026-04-27 19:27 10.31840 39.04758 36306 ft 461 kts 187°
2026-04-27 19:27 10.28655 39.04326 36066 ft 462 kts 187°
2026-04-27 19:27 10.25465 39.03896 35515 ft 464 kts 187°
2026-04-27 19:28 10.22237 39.03460 34446 ft 472 kts 187°
2026-04-27 19:28 10.18986 39.03018 33809 ft 468 kts 187°
2026-04-27 19:28 10.15791 39.02581 33319 ft 460 kts 187°
2026-04-27 19:28 10.12644 39.02147 32767 ft 454 kts 187°
2026-04-27 19:29 10.09535 39.01718 32228 ft 449 kts 187°
2026-04-27 19:29 10.06457 39.01294 31672 ft 444 kts 187°
2026-04-27 19:29 10.03411 39.00878 31136 ft 440 kts 187°
2026-04-27 19:29 10.00387 39.00467 30612 ft 436 kts 186°
2026-04-27 19:30 9.97399 39.00063 30137 ft 432 kts 186°
2026-04-27 19:30 9.94433 38.99659 29541 ft 428 kts 186°
2026-04-27 19:30 9.91497 38.99255 28961 ft 424 kts 186°
2026-04-27 19:30 9.88581 38.98852 28397 ft 420 kts 186°
2026-04-27 19:31 9.85694 38.98453 27880 ft 417 kts 186°
2026-04-27 19:31 9.82836 38.98062 27340 ft 413 kts 186°
2026-04-27 19:31 9.80004 38.97677 26821 ft 409 kts 186°
2026-04-27 19:31 9.77193 38.97295 26324 ft 406 kts 186°
2026-04-27 19:32 9.74401 38.96916 25875 ft 403 kts 186°
2026-04-27 19:32 9.71635 38.96541 25392 ft 400 kts 186°
2026-04-27 19:32 9.68886 38.96166 24936 ft 396 kts 186°
2026-04-27 19:32 9.66169 38.95795 24477 ft 393 kts 186°
2026-04-27 19:33 9.63473 38.95426 24050 ft 389 kts 186°
2026-04-27 19:33 9.62601 38.95306 23898 ft 388 kts 186°
2026-04-27 19:33 9.58137 38.94690 23001 ft 384 kts 186°
2026-04-27 19:33 9.55498 38.94328 22479 ft 381 kts 186°
2026-04-27 19:34 9.52883 38.93973 22002 ft 378 kts 186°
2026-04-27 19:34 9.50281 38.93621 21494 ft 376 kts 186°
2026-04-27 19:34 9.47699 38.93271 21004 ft 373 kts 186°
2026-04-27 19:34 9.45131 38.92923 20530 ft 371 kts 186°
2026-04-27 19:35 9.42581 38.92579 20070 ft 368 kts 185°
2026-04-27 19:35 9.40072 38.92561 19621 ft 353 kts 172°
2026-04-27 19:35 9.37754 38.93082 19174 ft 339 kts 159°
2026-04-27 19:35 9.35661 38.94069 18738 ft 326 kts 147°
2026-04-27 19:36 9.33801 38.95320 18336 ft 314 kts 145°
2026-04-27 19:36 9.32026 38.96521 18044 ft 299 kts 145°
2026-04-27 19:36 9.30322 38.97664 17850 ft 289 kts 146°
2026-04-27 19:36 9.28665 38.98775 17703 ft 280 kts 145°
2026-04-27 19:37 9.27074 38.99841 17393 ft 271 kts 145°
2026-04-27 19:37 9.25517 39.00887 16951 ft 267 kts 145°
2026-04-27 19:37 9.23972 39.01929 16475 ft 266 kts 145°
2026-04-27 19:37 9.22952 39.02616 16173 ft 266 kts 145°
2026-04-27 19:38 9.21383 39.03602 15721 ft 265 kts 152°
2026-04-27 19:38 9.19689 39.04343 15373 ft 266 kts 159°
2026-04-27 19:38 9.17962 39.05010 15151 ft 265 kts 158°
2026-04-27 19:38 9.16266 39.05671 14940 ft 258 kts 158°
2026-04-27 19:39 9.14591 39.06305 14663 ft 257 kts 163°
2026-04-27 19:39 9.12832 39.06573 14440 ft 256 kts 181°
2026-04-27 19:39 9.11080 39.06333 14145 ft 253 kts 198°
2026-04-27 19:39 9.09482 39.05622 13694 ft 250 kts 214°
2026-04-27 19:40 9.08157 39.04505 13228 ft 247 kts 230°
2026-04-27 19:40 9.07025 39.03207 12773 ft 245 kts 230°
2026-04-27 19:40 9.05912 39.01945 12451 ft 234 kts 229°
2026-04-27 19:40 9.04827 39.00720 11903 ft 234 kts 229°
2026-04-27 19:41 9.03843 38.99421 11387 ft 231 kts 239°
2026-04-27 19:41 9.03149 38.97968 10879 ft 229 kts 251°
2026-04-27 19:41 9.02693 38.96432 10371 ft 227 kts 254°
2026-04-27 19:41 9.02250 38.94898 9843 ft 228 kts 254°
2026-04-27 19:42 9.01804 38.93363 9462 ft 226 kts 254°
2026-04-27 19:42 9.01362 38.91851 9370 ft 224 kts 254°
2026-04-27 19:42 9.00917 38.90327 9384 ft 226 kts 253°
2026-04-27 19:42 9.00491 38.88862 9164 ft 212 kts 253°
2026-04-27 19:43 9.00089 38.87481 8933 ft 191 kts 253°
2026-04-27 19:43 8.99736 38.86273 8691 ft 173 kts 253°
2026-04-27 19:43 8.99409 38.85151 8449 ft 160 kts 253°
2026-04-27 19:43 8.99112 38.84086 8202 ft 155 kts 254°
2026-04-27 19:44 8.98813 38.83052 8007 ft 152 kts 252°
2026-04-27 19:44 8.98506 38.82029 7812 ft 151 kts 252°
2026-04-27 19:44 8.98210 38.81007 7648 ft 150 kts 252°
2026-04-27 19:44 8.97945 38.80112 7627 ft 116 kts 253°
2026-04-27 19:45 8.97742 38.79415 7619 ft 92 kts 254°
2026-04-27 19:45 8.97588 38.78890 7618 ft 63 kts 253°
2026-04-27 19:45 8.97478 38.78517 7616 ft 43 kts 253°
2026-04-27 19:45 8.97454 38.78271 7616 ft 27 kts 301°
2026-04-27 19:46 8.97616 38.78207 7618 ft 24 kts 346°
2026-04-27 19:46 8.97697 38.78216 7619 ft 11 kts 61°
2026-04-27 19:46 8.97708 38.78297 7619 ft 13 kts 84°
2026-04-27 19:46 8.97736 38.78385 7619 ft 14 kts 71°
2026-04-27 19:47 8.97770 38.78484 7620 ft 16 kts 71°
2026-04-27 19:47 8.97811 38.78591 7620 ft 16 kts 73°
2026-04-27 19:47 8.97843 38.78706 7621 ft 17 kts 74°
2026-04-27 19:47 8.97886 38.78826 7621 ft 19 kts 70°
2026-04-27 19:48 8.97933 38.78959 7621 ft 21 kts 70°
2026-04-27 19:48 8.97980 38.79096 7625 ft 12 kts 91°
2026-04-27 19:48 8.97906 38.79133 7621 ft 14 kts 166°
2026-04-27 19:48 8.97896 38.79136 7621 ft 0 kts 164°
2026-04-27 19:49 8.97874 38.79142 7621 ft 0 kts 164°